Find Starlink 36639

NORAD ID: 67669 Int'l Des: 2026-022 Owner: SPXS Country: US Constellation: starlink operational
LEOCIRCULARRETROGRADE

Current View

Loading 3D Globe...

About Starlink 36639

Description loading...

Upcoming Passes

Passes for default location (London). Set your location on the main map for personalized predictions.

Altitude History

Loading altitude history...

Two-Line Element Set

1 67669U 26022X 26145.36189297 .00025134 00000-0 77815-3 0 9995
2 67669 97.2850 178.6258 0000108 334.2894 25.8343 15.33450787 17327
Epoch: May 25, 2026 • Age: 20 hours

Current Status

Altitude 468.7 km
Velocity 7.63 km/s
Sub-Earth Point -2.11°S, 139.59°W
Launch Date Feb 2, 2026
Age 0.3 years
Type internet

Technical Details

Classification Payload
Mass 575.00 kg
Dry Mass 530.00 kg
Total Mass 575.00 kg
Length 0.30 m
Diameter 4.10 m
Span 29.00 m
Shape Box + pan
Manufacturer SPXS
Bus Type Starlink V2MO
Phase Status In Orbit
Owner/State SPXS/US

Most Searched